Regional Weather Roundup
Issued by NWS Sterling, VA

Home | Current Version | Previous Version | Graphics & Text | Print | Product List | Glossary On
Versions: 1 2 3 4 5 6 7 8 9 10 11 12 13 14 15 16 17 18 19 20 21 22 23 24 25 26 27 28 29 30 31 32 33 34 35 36 37 38 39 40 41 42 43 44 45 46 47 48 49 50
000
ASUS41 KLWX 040010
RWRLWX

REGIONAL WEATHER ROUNDUP
NATIONAL WEATHER SERVICE BALTIMORE MD/WASHINGTON DC
800 PM EDT SUN MAY 03 2015

Note: "FAIR" indicates few or no clouds below 12,000 feet
with no significant weather and/or obstructions to visibility.
 TC=TEMPERATURE CELSIUS

 * =Non NWS site. Station does not report precipitation (e.g. rain,
    snow, etc.), thunder, or fog.

DCZ001-MDZ009-015-VAZ040>042-051-053>054-040100-
WASHINGTON METRO

CITY           SKY/WX    TMP DP  RH WIND       PRES   REMARKS
WASHINGTON NAT PTCLDY    75  44  33 SW6       30.10R
DULLES         PTCLDY    70  45  40 S5        30.10R
ANDREWS AFB    CLEAR     73  43  34 SW6       30.10R
FT BELVOIR     CLEAR     67  53  59 CALM      30.10R
QUANTICO       CLEAR     74  42  31 SW5       30.11R
COLLEGE PARK*  CLEAR     77  39  25 CALM      30.09S
LEESBURG*      CLEAR     73  46  38 SW5       30.11R
MANASSAS*      CLEAR     75  45  33 SW3       30.10R
GAITHERSBURG*  CLEAR     72  43  35 CALM      30.14S

$$

MDZ006>007-011-014-040100-
BALTIMORE METRO

CITY           SKY/WX    TMP DP  RH WIND       PRES   REMARKS
BWI AIRPORT    PTCLDY    72  42  34 SE5       30.09R
MD SCIENCE CTR   N/A     75  41  29 MISG      30.10R
MARTIN STATE   PTCLDY    72  45  37 S7        30.11R
ANNAPOLIS      CLEAR     69  43  38 S7        30.10R
FORT MEADE*    CLEAR     70  45  40 SE7       30.12R

$$

MDZ012-015-019>023-040100-
MARYLAND EASTERN SHORE

CITY           SKY/WX    TMP DP  RH WIND       PRES   REMARKS
OCEAN CITY     CLEAR     59  53  80 CALM      30.13R
SALISBURY      CLEAR     67  50  54 S5        30.12R
BAY BRIDGE AP*   N/A    N/A N/A N/A S5        30.10S
CAMBRIDGE*     CLEAR     72  46  40 CALM      30.11R
EASTON*        PTCLDY    73  46  38 SW3       30.14R

$$

MDZ017>025-040100-
SOUTHERN MARYLAND

CITY           SKY/WX    TMP DP  RH WIND       PRES   REMARKS
PATUXENT RIVER CLEAR     68  43  40 S6        30.11R
ST INIGOES     CLEAR     69  48  47 S7        30.11R
LEONARDTOWN*   CLEAR     70  37  30 SE3       30.13R

$$

MDZ003>005-040100-
NORTH CENTRAL MARYLAND

CITY           SKY/WX    TMP DP  RH WIND       PRES   REMARKS
FREDERICK*     NOT AVBL
HAGERSTOWN APT CLEAR     72  43  35 S6        30.09R
WESTMINSTER*   CLEAR     73  43  33 CALM      30.10S

$$

MDZ501>502-040100-
WESTERN MARYLAND

CITY           SKY/WX    TMP DP  RH WIND       PRES   REMARKS
OAKLAND*       PTCLDY    63  36  36 CALM      30.18S
CUMBERLAND*    PTCLDY    75  36  23 W3        30.13S

$$

VAZ025>031-040100-
SHENANDOAH VALLEY

CITY           SKY/WX    TMP DP  RH WIND       PRES   REMARKS
WINCHESTER*    PTCLDY    70  36  28 CALM      30.10S
FRONT ROYAL*   CLOUDY    70  43  37 CALM      30.10S
LURAY*         FAIR      72  46  40 SW3       30.11S
NEW MARKET*    FAIR      63  49  59 CALM      30.10R
STAUNTON*      PTCLDY    69  39  33 S5        30.15R
WAYNESBORO*    FAIR      69  39  34 S6        30.15R

$$

WVZ021-048>050-054>055-040100-
EASTERN WEST VIRGINIA PANHANDLE

CITY           SKY/WX    TMP DP  RH WIND       PRES   REMARKS
MARTINSBURG    CLEAR     70  43  37 S6        30.10R
PETERSBURG*    PTCLDY    70  51  50 CALM      30.12R

$$

VAZ036>039-050-040100-
CENTRAL FOOTHILLS

CITY           SKY/WX    TMP DP  RH WIND       PRES   REMARKS
CHARLOTTESVILL PTCLDY    70  41  34 S5        30.12R
CULPEPER*      NOT AVBL
ORANGE*        PTCLDY    70  45  40 CALM      30.14R
GORDONSVILLE*  FAIR      67  48  51 MISG      30.12R
WARRENTON*     FAIR      70  50  48 S3        30.11R

$$

VAZ055>057-040100-
NORTH AND CENTRAL PIEDMONT

CITY           SKY/WX    TMP DP  RH WIND       PRES   REMARKS
FREDERICKSBRG* CLEAR     73  48  40 SW5       30.10S
STAFFORD*      CLEAR     72  38  29 CALM      30.15R

$$

NCZ024-NYZ072-PAZ021-071-VAZ022-071-040100-
OTHER REGIONAL OBSERVATIONS

CITY           SKY/WX    TMP DP  RH WIND       PRES   REMARKS
NEW YORK CITY  CLEAR     67  38  34 S3        30.11R
PHILADELPHIA   PTCLDY    77  36  22 SW6       30.08R
PITTSBURGH     PTCLDY    73  40  30 SW5       30.10R
ROANOKE        PTCLDY    69  42  37 SE7       30.16R
RICHMOND       PTCLDY    70  45  40 S5        30.13R
RALEIGH        PTCLDY    68  49  50 CALM      30.16S

$$

ANZ530>537-040100-
MARINE OBSERVATIONS

STATION/POSITION TIME  TEMP    WIND        PRES
                       AIR SEA DIR/SP/G
                 (UTC) (F)     (DEG/KT/KT) (MB)
THOMAS PT LIGHT  0000   67 60  190/ 12/ 12 1019.9R
BALT KEY BRIDGE  2300   74     150/  9/ 11 1018.5R
COVE POINT       2300   68     190/ 10/ 11 1020.0R
LEWISETTA        2300   73 63              1019.5R
SOLOMONS ISLAND  2300      62                N/A
PINEY POINT      2306          160/ 10/ 11   N/A

$$




USA.gov is the U.S. government's official web portal to all federal, state and local government web resources and services.